This is the latest recevied weather packets stored in our database for station/object WE1C. If no packets are shown the sender has not sent any weather packets the latest 10 day(s).
| Time | Temp. | Humidity | Pressure | Rain* | Wind** | Luminosity | Snow |
|---|---|---|---|---|---|---|---|
| 1788439387 | 17.78° C | 99% | 1043.5 hPa | 0 mm | - | 76 W/m² | - |
| 1788439086 | 17.22° C | 99% | 1043.7 hPa | 0 mm | - | 82 W/m² | - |
| 1788438786 | 17.22° C | 99% | 1043.6 hPa | 0 mm | - | 77 W/m² | - |
| 1788438484 | 17.22° C | 99% | 1043.7 hPa | 0 mm | - | 59 W/m² | - |
| 1788438179 | 17.22° C | 99% | 1043.8 hPa | 0 mm | - | 58 W/m² | - |
| 1788437877 | 16.67° C | 99% | 1043.7 hPa | 0 mm | - | 55 W/m² | - |
| 1788437573 | 16.67° C | 99% | 1043.8 hPa | 0 mm | - | 50 W/m² | - |
| 1788437268 | 16.67° C | 99% | 1044 hPa | 0 mm | - | 28 W/m² | - |
| 1788436962 | 16.67° C | 99% | 1044.1 hPa | 0 mm | - | 26 W/m² | - |
| 1788436660 | 16.67° C | 99% | 1043.9 hPa | 0 mm | - | 20 W/m² | - |
| 1788436356 | 16.67° C | 99% | 1044 hPa | 0 mm | - | 19 W/m² | - |
| 1788436050 | 16.67° C | 99% | 1044.1 hPa | 0 mm | - | 23 W/m² | - |
| 1788435746 | 16.67° C | 99% | 1044 hPa | 0 mm | - | 24 W/m² | - |
| 1788435441 | 16.11° C | 99% | 1044.2 hPa | 0 mm | - | 25 W/m² | - |
| 1788435137 | 16.11° C | 99% | 1044.3 hPa | 0 mm | - | 20 W/m² | - |
| 1788434854 | 16.11° C | 99% | 1044.1 hPa | 0 mm | - | 12 W/m² | - |
| 1788434529 | 16.11° C | 99% | 1044.2 hPa | 0 mm | - | 12 W/m² | - |
| 1788434227 | 16.11° C | 99% | 1044.2 hPa | 0 mm | - | 12 W/m² | - |
| 1788433923 | 16.11° C | 99% | 1044.2 hPa | 0 mm | - | 9 W/m² | - |
| 1788433618 | 16.11° C | 99% | 1044.3 hPa | 0 mm | - | 7 W/m² | - |
| 1788433314 | 16.11° C | 99% | 1044.1 hPa | 0 mm | - | 7 W/m² | - |
| 1788433014 | 16.11° C | 99% | 1043.9 hPa | 0 mm | - | 5 W/m² | - |
| 1788432709 | 16.11° C | 99% | 1044.1 hPa | 0 mm | - | 6 W/m² | - |
| 1788432409 | 16.11° C | 99% | 1044.1 hPa | 0 mm | - | 3 W/m² | - |
| 1788432104 | 16.11° C | 99% | 1044.1 hPa | 0 mm | - | 3 W/m² | - |
* Rain latest hour (hover to see other rain measurements)
** Current wind speed in m/s (hover to see current wind gust speed)